| time (UTC) | temp F | wind direction | speed knots | gust knots | rain 1hr in | rain 24hr in | rain mn in | humidity % | barometer mb |
| 20260503194516 | 42 | 0.0 | 0.9 | 0.00 | 0.00 | 0.00 | |||
| 20260503193516 | 43 | 0.0 | 0.9 | 0.00 | 0.00 | 0.00 | |||
| 20260503192517 | 43 | 0.0 | 1.7 | 0.00 | 0.00 | 0.00 | |||
| 20260503191516 | 43 | 0.0 | 0.0 | 0.00 | 0.00 | 0.00 | |||
| 20260503190516 | 43 | 0.0 | 0.9 | 0.00 | 0.00 | 0.00 | |||
| 20260503185516 | 44 | 0.0 | 0.9 | 0.00 | 0.00 | 0.00 | |||
| 20260503184516 | 44 | 0.0 | 0.0 | 0.00 | 0.00 | 0.00 | |||
| 20260503183516 | 45 | 0.0 | 0.0 | 0.00 | 0.00 | 0.00 | |||
| 20260503182516 | 46 | 0.0 | 0.9 | 0.00 | 0.00 | 0.00 | |||
| 20260503181516 | 47 | 0.0 | 0.0 | 0.00 | 0.00 | 0.00 | |||
| 20260503180516 | 48 | 0.0 | 0.0 | 0.00 | 0.00 | 0.00 | |||
| 20260503175516 | 49 | 0.0 | 0.0 | 0.00 | 0.00 | 0.00 | |||
| 20260503174516 | 49 | 0.0 | 0.9 | 0.00 | 0.00 | 0.00 | |||
| 20260503173516 | 50 | 0.0 | 0.0 | 0.00 | 0.00 | 0.00 | |||
| 20260503172516 | 51 | 0.0 | 0.9 | 0.00 | 0.00 | 0.00 | |||
| 20260503171516 | 51 | 0.0 | 1.7 | 0.00 | 0.00 | 0.00 | |||
| 20260503170516 | 52 | 0.0 | 0.9 | 0.00 | 0.00 | 0.00 | |||
| 20260503150516 | 55 | 135 | 3.5 | 8.7 | 0.00 | 0.00 | 0.00 | ||
| 20260503130516 | 58 | 135 | 3.5 | 7.0 | 0.00 | 0.00 | 0.00 | ||
| 20260503110536 | 58 | 135 | 4.3 | 11.3 | 0.00 | 0.00 | 0.00 | ||
| 20260503081516 | 58 | 68 | 2.6 | 9.6 | 0.00 | 0.00 | 0.00 | ||
| 20260503080516 | 57 | 90 | 2.6 | 10.4 | 0.00 | 0.00 | 0.00 | ||
| 20260503072516 | 58 | 135 | 2.6 | 6.1 | 0.00 | 0.00 | 0.00 | ||
| 20260503071516 | 57 | 113 | 1.7 | 4.3 | 0.00 | 0.00 | 0.00 | ||
| 20260503070536 | 57 | 135 | 3.5 | 9.6 | 0.00 | 0.00 | 0.00 | ||
| 20260503054516 | 53 | 135 | 2.6 | 7.8 | 0.00 | 0.00 | 0.00 | ||
| 20260503053516 | 53 | 135 | 1.7 | 6.1 | 0.00 | 0.00 | 0.00 | ||
| 20260503052516 | 52 | 68 | 1.7 | 5.2 | 0.00 | 0.00 | 0.00 | ||
| 20260503051516 | 51 | 135 | 2.6 | 7.8 | 0.00 | 0.00 | 0.00 | ||
| 20260503050516 | 50 | 68 | 0.9 | 4.3 | 0.00 | 0.00 | 0.00 | ||
| 20260503045536 | 49 | 45 | 1.7 | 3.5 | 0.00 | 0.00 | 0.00 | ||
| 20260503044516 | 45 | 90 | 0.9 | 2.6 | 0.00 | 0.00 | 0.00 | ||
| 20260503043516 | 43 | 225 | 0.9 | 2.6 | 0.00 | 0.00 | 0.00 | ||
| 20260503042536 | 41 | 0.0 | 0.9 | 0.00 | 0.00 | 0.00 | |||
| 20260503041517 | 40 | 0.0 | 1.7 | 0.00 | 0.00 | 0.00 | |||
| 20260503040516 | 37 | 270 | 0.9 | 3.5 | 0.00 | 0.00 | 0.00 | ||
| 20260503035516 | 35 | 68 | 0.9 | 2.6 | 0.00 | 0.00 | 0.00 | ||
| 20260503034516 | 33 | 248 | 0.9 | 2.6 | 0.00 | 0.00 | 0.00 | ||
| 20260503033516 | 33 | 0.0 | 0.9 | 0.00 | 0.00 | 0.00 | |||
| 20260503032536 | 32 | 0.0 | 1.7 | 0.00 | 0.00 | 0.00 | |||
| 20260503031536 | 31 | 0.0 | 0.9 | 0.00 | 0.00 | 0.00 | |||
| 20260503030516 | 32 | 0.0 | 0.9 | 0.00 | 0.00 | 0.00 | |||
| 20260503025516 | 32 | 0.0 | 0.0 | 0.00 | 0.00 | 0.00 | |||
| 20260503024536 | 32 | 0.0 | 0.9 | 0.00 | 0.00 | 0.00 | |||
| 20260503023536 | 32 | 0.0 | 0.9 | 0.00 | 0.00 | 0.00 | |||
| 20260503022516 | 33 | 0.0 | 0.9 | 0.00 | 0.00 | 0.00 | |||
| 20260503021536 | 32 | 0.0 | 0.0 | 0.00 | 0.00 | 0.00 | |||
| 20260503020516 | 32 | 0.0 | 0.0 | 0.00 | 0.00 | 0.00 | |||
| 20260503015516 | 33 | 0.0 | 0.0 | 0.00 | 0.00 | 0.00 | |||
| 20260503014516 | 34 | 0.0 | 0.9 | 0.00 | 0.00 | 0.00 | |||
| 20260503013517 | 33 | 0.0 | 0.0 | 0.00 | 0.00 | 0.00 | |||
| 20260503012516 | 33 | 0.0 | 0.0 | 0.00 | 0.00 | 0.00 | |||
| 20260503011516 | 34 | 0.0 | 0.0 | 0.00 | 0.00 | 0.00 | |||
| 20260503010536 | 33 | 0.0 | 0.9 | 0.00 | 0.00 | 0.00 | |||
| 20260503005516 | 35 | 0.0 | 0.9 | 0.00 | 0.00 | 0.00 | |||
| 20260503004516 | 34 | 0.0 | 0.0 | 0.00 | 0.00 | 0.00 | |||
| 20260503003536 | 34 | 0.0 | 0.9 | 0.00 | 0.00 | 0.00 | |||
| 20260503002516 | 34 | 0.0 | 0.9 | 0.00 | 0.00 | 0.00 | |||
| 20260503001516 | 35 | 0.0 | 0.0 | 0.00 | 0.00 | 0.00 | |||
| 20260503000516 | 35 | 0.0 | 0.9 | 0.00 | 0.00 | 0.00 | |||
| 20260502235516 | 35 | 0.0 | 0.0 | 0.00 | 0.00 | 0.00 | |||
| 20260502234516 | 36 | 0.0 | 0.9 | 0.00 | 0.00 | 0.00 | |||
| 20260502233516 | 36 | 0.0 | 0.9 | 0.00 | 0.00 | 0.00 | |||
| 20260502232516 | 35 | 0.0 | 0.9 | 0.00 | 0.00 | 0.00 | |||
| 20260502231516 | 35 | 0.0 | 0.0 | 0.00 | 0.00 | 0.00 | |||
| 20260502230516 | 35 | 0.0 | 0.0 | 0.00 | 0.00 | 0.00 | |||
| 20260502225516 | 36 | 0.0 | 0.0 | 0.00 | 0.00 | 0.00 | |||
| 20260502224516 | 37 | 0.0 | 0.0 | 0.00 | 0.00 | 0.00 | |||
| 20260502223516 | 36 | 0.0 | 0.0 | 0.00 | 0.00 | 0.00 | |||
| 20260502222516 | 37 | 0.0 | 0.0 | 0.00 | 0.00 | 0.00 | |||
| 20260502221516 | 38 | 0.0 | 0.0 | 0.00 | 0.00 | 0.00 | |||
| 20260502220516 | 38 | 0.0 | 0.0 | 0.00 | 0.00 | 0.00 | |||
| 20260502215516 | 38 | 0.0 | 0.9 | 0.00 | 0.00 | 0.00 | |||
| 20260502214536 | 39 | 0.0 | 0.9 | 0.00 | 0.00 | 0.00 | |||
| 20260502213516 | 39 | 0.0 | 0.9 | 0.00 | 0.00 | 0.00 | |||
| 20260502212516 | 39 | 0.0 | 0.0 | 0.00 | 0.00 | 0.00 | |||
| 20260502211516 | 40 | 0.0 | 0.0 | 0.00 | 0.00 | 0.00 | |||
| 20260502210516 | 40 | 0.0 | 0.9 | 0.00 | 0.00 | 0.00 | |||
| 20260502205516 | 40 | 0.0 | 0.0 | 0.00 | 0.00 | 0.00 | |||
| 20260502204516 | 39 | 0.0 | 0.9 | 0.00 | 0.00 | 0.00 | |||
| 20260502203516 | 40 | 0.0 | 0.9 | 0.00 | 0.00 | 0.00 | |||
| 20260502202516 | 40 | 270 | 0.9 | 1.7 | 0.00 | 0.00 | 0.00 | ||
| 20260502201516 | 40 | 0.0 | 0.9 | 0.00 | 0.00 | 0.00 | |||
| 20260502200536 | 40 | 0.0 | 0.9 | 0.00 | 0.00 | 0.00 | |||
| 20260502195517 | 40 | 0.0 | 0.9 | 0.00 | 0.00 | 0.00 |